Wind_Speed
20 20 20 13 15 18 21 18 15 12 14 13 12 13 11 9 8 13 10 12 12 11
20 18 12 12 7 16 18 17 14 13 14 13 12 14 11 17 16 15 14 11 11 9
16 11 8 9 10 12 15 13 12 12 12 13 11 12 15 16 22 17 15 11 9 14
11 8 8 7 8 9 9 8 8 8 8 9 9 7 8 11 17 23 17 14 11 12
7 1 1 1 2 4 4 4 5 6 5 5 7 4 4 7 13 11 20 22 21 20
6 6 4 4 6 7 6 7 7 7 7 5 3 3 2 5 3 4 6 9 13 10
6 4 5 5 5 4 4 4 5 5 6 6 5 4 2 2 6 8 9 12 13 14
4 3 1 1 3 3 2 1 2 3 3 3 4 3 3 4 6 9 11 13 15 16
3 2 4 4 2 2 3 3 2 4 4 5 7 8 9 7 8 10 14 17 19 21
3 4 8 6 4 4 5 5 6 7 7 8 9 11 12 13 12 10 10 12 15 16
5 6 5 4 6 6 7 8 7 7 8 8 6 6 7 6 9 11 14 13 13 15
8 8 7 7 8 9 9 7 6 6 6 7 6 5 6 9 12 14 16 18 18 18
6 6 8 8 8 7 5 2 4 5 3 7 5 3 7 9 12 17 20 21 20 21
6 7 7 8 6 3 4 4 3 3 3 7 9 14 14 15 16 17 19 21 25 28
Wind_Direction
248 250 259 274 299 290 286 284 269 259 273 279 271 234 231 208 253 288 285 283 261 243
249 252 275 263 315 271 276 271 273 274 277 265 267 264 244 228 225 246 263 260 272 248
269 267 266 259 265 264 268 281 283 276 278 273 280 281 295 254 235 246 253 231 248 265
275 283 274 261 266 265 276 289 300 300 288 290 295 307 252 235 263 242 245 225 235 253
266 343 52 91 328 315 309 309 306 301 297 321 347 328 286 252 201 295 207 216 229 235
139 128 100 98 90 80 81 82 73 63 56 33 7 9 308 287 291 270 262 221 186 196
163 153 145 121 114 110 95 82 71 58 47 47 52 65 90 224 236 255 251 256 267 256
150 150 135 104 108 106 116 81 41 27 12 357 345 334 293 253 249 256 261 258 262 266
180 220 281 289 312 332 352 342 319 298 291 281 277 277 275 293 291 285 280 282 280 282
208 259 269 279 286 302 306 301 295 291 289 290 291 290 288 298 305 310 303 291 287 286
219 252 261 286 298 304 305 302 303 311 327 334 328 319 332 332 323 338 336 332 330 325
241 266 282 290 297 306 308 307 315 344 14 34 19 0 339 322 327 330 327 327 328 327
257 268 281 299 318 326 328 5 64 79 54 2 353 329 312 310 317 320 324 326 324 323
293 301 314 334 351 38 64 84 13 343 303 316 328 328 328 328 327 321 316 314 316 318
Height
1519 1518 1520 1524 1526 1523 1523 1522 1517 1518 1519 1519 1518 1517 1520 1518 1520 1522 1523 1524 1524 1523
1512 1516 1519 1516 1515 1513 1517 1516 1517 1514 1516 1516 1516 1515 1517 1514 1515 1518 1519 1520 1522 1523
1512 1512 1514 1516 1515 1515 1515 1513 1513 1512 1513 1512 1513 1513 1512 1511 1512 1515 1516 1516 1517 1522
1513 1512 1513 1512 1512 1512 1511 1510 1509 1509 1509 1509 1509 1509 1509 1509 1509 1512 1513 1513 1515 1518
1513 1512 1511 1511 1510 1509 1508 1508 1507 1507 1507 1507 1507 1506 1508 1508 1508 1508 1504 1512 1513 1517
1513 1513 1512 1511 1510 1510 1509 1509 1508 1507 1507 1506 1506 1506 1506 1507 1508 1509 1509 1507 1506 1511
1513 1512 1512 1511 1511 1510 1510 1509 1508 1508 1507 1506 1506 1506 1507 1507 1508 1509 1509 1509 1508 1507
1512 1512 1512 1511 1511 1510 1509 1508 1508 1507 1507 1507 1506 1506 1506 1507 1507 1507 1507 1506 1505 1504
1512 1512 1511 1511 1510 1510 1509 1508 1507 1506 1506 1505 1505 1504 1504 1504 1504 1504 1502 1501 1500 1499
1513 1512 1511 1510 1510 1509 1508 1507 1505 1504 1504 1503 1502 1502 1501 1500 1500 1499 1498 1497 1495 1494
1512 1511 1510 1510 1509 1508 1506 1505 1503 1502 1501 1500 1499 1499 1498 1498 1497 1497 1496 1494 1492 1491
1509 1509 1509 1508 1507 1506 1504 1503 1502 1501 1500 1498 1498 1497 1497 1497 1496 1495 1493 1492 1490 1487
1508 1507 1507 1506 1505 1503 1502 1501 1501 1500 1498 1497 1496 1496 1496 1495 1494 1492 1490 1488 1486 1484
1507 1506 1505 1504 1503 1501 1501 1500 1499 1498 1497 1497 1496 1494 1493 1491 1489 1487 1485 1482 1480 1478